Alderney, United Kingdom

1:05 PM BST on June 22, 2017 (GMT +0100)
Alderney

Weather History for EGJA - November, 2012

Change the Weather History Date:

Thursday, November 22, 2012

  Actual Average Record
Temperature  
Mean Temperature 54 °F -  
Max Temperature 55 °F 48 °F 57 °F (2004)
Min Temperature 53 °F 44 °F 42 °F (2008)
Degree Days  
Heating Degree Days 11    
Growing Degree Days 4 (Base 50)    
Moisture  
Dew Point 48 °F    
Average Humidity 80    
Maximum Humidity 88    
Minimum Humidity 67    
Precipitation  
Precipitation 0.00 in - - ()
Sea Level Pressure  
Sea Level Pressure 29.89 in    
Wind  
Wind Speed 33 mph ()    
Max Wind Speed 50 mph    
Max Gust Speed 66 mph    
Visibility 6.2 miles    
Events      
Averages and records for this station are not official NWS values.
T = Trace of Precipitation, MM = Missing Value Source: Averaged Metar Reports

Daily Weather History Graph

Daily Weather History Graph

Search for Another Location

Airport or City:

Trip Planner

Search our weather history database for the weather conditions in past years. The results will help you decide how hot, cold, wet, or windy it might be!

Date:

Astronomy

Nov. 22, 2012 Rise Set
Actual Time 7:32 AM GMT 4:17 PM GMT
Civil Twilight 6:55 AM GMT 4:53 PM GMT
Nautical Twilight 6:16 AM GMT 5:33 PM GMT
Astronomical Twilight 5:37 AM GMT 6:11 PM GMT
Moon 1:23 PM GMT 1:06 AM GMT
Length of Visible Light 9h 57m
Length of Day
8h 45m
Waxing Gibbous, 69% of the Moon is Illuminated
Nov 22
Waxing Gibbous
Nov 28
Full
Dec 6
Last Quarter
Dec 13
New
Dec 20
First Quarter

Hourly Weather History & Observations

Time (GMT) Temp. Dew Point Humidity Pressure Visibility Wind Dir Wind Speed Gust Speed Precip Events Conditions
6:50 AM 53.6 °F 50.0 °F 88% 29.98 in 6.2 mi South 28.8 mph - N/A   Partly Cloudy
7:20 AM 53.6 °F 50.0 °F 88% 29.95 in 6.2 mi South 32.2 mph - N/A   Partly Cloudy
7:50 AM 53.6 °F 50.0 °F 88% 29.95 in 6.2 mi South 41.4 mph - N/A   Partly Cloudy
8:20 AM 53.6 °F 50.0 °F 88% 29.98 in - South 33.4 mph 47.2 mph N/A   Clear
8:50 AM 53.6 °F 50.0 °F 88% 29.98 in 6.2 mi South 38.0 mph 50.6 mph N/A   Partly Cloudy
9:20 AM 53.6 °F 50.0 °F 88% 29.95 in 6.2 mi South 32.2 mph 46.0 mph N/A   Partly Cloudy
9:50 AM 53.6 °F 50.0 °F 88% 29.95 in 6.2 mi South 34.5 mph 50.6 mph N/A   Partly Cloudy
10:20 AM 53.6 °F 50.0 °F 88% 29.95 in 6.2 mi South 34.5 mph 48.3 mph N/A   Partly Cloudy
10:50 AM 53.6 °F 50.0 °F 88% 29.95 in 6.2 mi South 38.0 mph 50.6 mph N/A   Partly Cloudy
11:20 AM 53.6 °F 50.0 °F 88% 29.92 in 6.2 mi South 40.3 mph 52.9 mph N/A   Partly Cloudy
11:50 AM 53.6 °F 48.2 °F 82% 29.92 in 6.2 mi South 40.3 mph 51.8 mph N/A   Partly Cloudy
12:20 PM 55.4 °F 48.2 °F 77% 29.89 in 6.2 mi South 40.3 mph 51.8 mph N/A   Partly Cloudy
12:50 PM 55.4 °F 48.2 °F 77% 29.89 in 6.2 mi South 40.3 mph 51.8 mph N/A   Partly Cloudy
1:20 PM 55.4 °F 48.2 °F 77% 29.89 in 6.2 mi South 35.7 mph 51.8 mph N/A   Partly Cloudy
1:50 PM 55.4 °F 46.4 °F 72% 29.86 in 6.2 mi South 36.8 mph 50.6 mph N/A   Partly Cloudy
2:20 PM 55.4 °F 46.4 °F 72% 29.86 in 6.2 mi South 41.4 mph 55.2 mph N/A   Partly Cloudy
2:50 PM 55.4 °F 46.4 °F 72% 29.83 in 6.2 mi South 39.1 mph 52.9 mph N/A   Partly Cloudy
3:20 PM 55.4 °F 44.6 °F 67% 29.83 in - South 44.9 mph 59.8 mph N/A   Clear
3:50 PM 55.4 °F 44.6 °F 67% 29.83 in - South 48.3 mph 64.4 mph N/A   Clear
4:20 PM 55.4 °F 44.6 °F 67% 29.83 in 6.2 mi South 46.0 mph 58.7 mph N/A   Partly Cloudy
4:50 PM 53.6 °F 46.4 °F 77% 29.80 in 6.2 mi South 46.0 mph 61.0 mph N/A   Partly Cloudy
5:20 PM 53.6 °F 46.4 °F 77% 29.80 in 6.2 mi South 49.5 mph 65.6 mph N/A   Partly Cloudy
5:50 PM 53.6 °F 46.4 °F 77% 29.77 in 6.2 mi South 43.7 mph 61.0 mph N/A   Partly Cloudy
6:20 PM 53.6 °F 46.4 °F 77% 29.77 in 6.2 mi South 43.7 mph 63.3 mph N/A   Partly Cloudy